Flag for China Weather past 2 weeks in Changchun, China

Now
57 °F

Passing clouds.


Feels Like: 57 °F
Forecast: 46 / 62 °F
Wind: 3 mph from East

Location: Changchun Airport


UV Index: 3 (Moderate)

Visibility: N/A


Pressure: 30.01 "Hg

Humidity: 23%

Dew point: 19 °F

Location of ChangchunLocation

Historic Weather in Changchun

°F

Changchun temperature yesterday

Maximum temperature yesterday: 57 °F (at 1:00 PM)
Minimum temperature yesterday: 39 °F (at 11:00 PM)
Average temperature yesterday: 48 °F

Past Weeks' High & Low Weather Summary

 TemperatureHumidityPressure
High77 °F (Apr 14, 1:00 PM)86% (Apr 5, 3:00 AM)30.24 "Hg (Apr 5, 3:00 AM)
Low23 °F (Apr 6, 5:00 AM)8% (Apr 11, 1:00 PM)29.68 "Hg (Apr 6, 10:00 PM)
Average48 °F34%30.04 "Hg
* Reported Apr 4 8:00 PM — Apr 19 8:00 PM, Changchun, Weather by CustomWeather, © 2014

Note: Actual official high and low records may vary slightly from our data, if they occured in-between our weather recording intervals... More about our weather records

Advertising

Historic Weather Conditions — Data for Previous 24 hours

 ConditionsComfort  
Time TempWeatherWind HumidityBarometerVisibility
8:00 PM
Apr 19
57 °FPassing clouds.3 mph23%30.01 "HgN/A
7:00 PM57 °FPassing clouds.3 mph23%30.01 "HgN/A
6:00 PM61 °FScattered clouds.1 mph16%30.01 "HgN/A
5:00 PM61 °FSunny.1 mph17%30.01 "Hg10 mi
4:00 PM63 °FPassing clouds.8 mph16%30.01 "HgN/A
3:00 PM63 °FPassing clouds.8 mph16%30.04 "HgN/A
2:00 PM63 °FPassing clouds.10 mph15%30.07 "HgN/A
1:00 PM61 °FSunny.6 mph17%30.09 "Hg10 mi
12:00 PM61 °FSunny.6 mph13%30.15 "Hg10 mi
11:00 AM61 °FPassing clouds.8 mph15%30.18 "HgN/A
10:00 AM57 °FPassing clouds.6 mph18%30.21 "HgN/A
9:00 AM54 °FPassing clouds.3 mph24%30.24 "HgN/A
8:00 AM46 °FSunny.1 mph37%30.24 "Hg10 mi
7:00 AM39 °FClear.1 mph45%30.24 "Hg4 mi
6:00 AM32 °FClear.1 mph69%30.24 "Hg4 mi
5:00 AM30 °FSunny.No wind59%30.24 "Hg10 mi
4:00 AM30 °FClear.No wind59%30.24 "Hg10 mi
3:00 AM34 °FClear.1 mph48%30.24 "Hg10 mi
2:00 AM36 °FClear.1 mph44%30.24 "Hg10 mi
1:00 AM36 °FClear.1 mph44%30.21 "Hg10 mi
12:00 AM39 °FClear.1 mph36%30.24 "Hg10 mi
11:00 PM
Apr 18
39 °FClear.1 mph39%30.21 "Hg10 mi
10:00 PM41 °FClear.1 mph36%30.21 "Hg10 mi
9:00 PM43 °FClear.3 mph26%30.21 "Hg10 mi
Weather by CustomWeather, © 2014

See weather overview